This is the latest recevied weather packets stored in our database for station/object K8JCL-13. If no packets are shown the sender has not sent any weather packets the latest 10 day(s).
| Time | Temp. | Humidity | Pressure | Rain* | Wind** | Luminosity | Snow |
|---|---|---|---|---|---|---|---|
| 1777750601 | 11.11° C | 50% | 1017.5 hPa | 0 mm | - | 531 W/m² | - |
| 1777750299 | 10° C | 47% | 1017.7 hPa | 0 mm | - | 709 W/m² | - |
| 1777749993 | 11.11° C | 47% | 1017.6 hPa | 0 mm | - | 164 W/m² | - |
| 1777749692 | 10.56° C | 50% | 1017.7 hPa | 0 mm | - | 734 W/m² | - |
| 1777749388 | 10° C | 47% | 1017.6 hPa | 0 mm | - | 724 W/m² | - |
| 1777749086 | 10° C | 48% | 1017.7 hPa | 0 mm | - | 162 W/m² | - |
| 1777748783 | 10° C | 46% | 1017.8 hPa | 0 mm | - | 722 W/m² | - |
| 1777748480 | 9.44° C | 48% | 1018.1 hPa | 0 mm | - | 250 W/m² | - |
| 1777748175 | 9.44° C | 48% | 1017.9 hPa | 0 mm | - | 189 W/m² | - |
| 1777747872 | 9.44° C | 47% | 1017.7 hPa | 0 mm | - | 192 W/m² | - |
| 1777747568 | 10° C | 48% | 1018 hPa | 0 mm | - | 202 W/m² | - |
| 1777747263 | 10.56° C | 47% | 1018.1 hPa | 0 mm | - | 522 W/m² | - |
| 1777746960 | 10.56° C | 48% | 1017.7 hPa | 0 mm | - | 806 W/m² | - |
| 1777746657 | 11.11° C | 47% | 1017.9 hPa | 0 mm | - | 200 W/m² | - |
| 1777746352 | 10° C | 49% | 1018 hPa | 0 mm | - | 797 W/m² | - |
| 1777746048 | 10° C | 47% | 1018.1 hPa | 0 mm | - | 141 W/m² | - |
| 1777745746 | 10° C | 47% | 1017.9 hPa | 0 mm | - | 186 W/m² | - |
| 1777745444 | 10° C | 48% | 1018.1 hPa | 0 mm | - | 150 W/m² | - |
| 1777745140 | 10.56° C | 47% | 1018.1 hPa | 0 mm | - | 804 W/m² | - |
| 1777744832 | 10.56° C | 48% | 1018.1 hPa | 0 mm | - | 736 W/m² | - |
| 1777744526 | 11.11° C | 47% | 1018 hPa | 0 mm | - | 736 W/m² | - |
| 1777744222 | 10.56° C | 48% | 1018 hPa | 0 mm | - | 785 W/m² | - |
| 1777743920 | 10° C | 50% | 1018.3 hPa | 0 mm | - | 778 W/m² | - |
| 1777743616 | 10° C | 50% | 1018 hPa | 0 mm | - | 803 W/m² | - |
| 1777743313 | 10° C | 46% | 1018.2 hPa | 0 mm | - | 738 W/m² | - |
* Rain latest hour (hover to see other rain measurements)
** Current wind speed in m/s (hover to see current wind gust speed)